CAPE
6 0 0 0 0 0 0 9 1 60 40 34 43 72 40 308 56 0 44 387 506 544 565 592 809 404 317 751 927 780 650 389 215 125 96 79 86 64 16 0 0 0 0 0 0 0 0 0 0
0 0 0 0 0 0 0 0 230 148 227 95 119 69 73 730 591 441 699 648 544 524 362 410 727 397 508 967 845 670 395 149 100 87 69 89 38 17 0 0 0 0 0 0 0 0 0 0 377
0 0 0 0 0 0 0 66 250 130 236 286 377 149 202 542 555 413 624 671 597 400 348 377 570 527 912 1136 1099 563 139 85 88 75 78 55 26 0 0 0 0 0 0 0 0 0 0 46 515
0 0 0 0 0 0 0 152 70 55 11 182 461 342 789 756 716 710 706 625 455 376 354 888 709 956 1406 1279 737 213 115 88 92 74 65 38 11 0 0 0 0 0 0 1 0 0 0 306 806
0 0 0 0 0 0 0 106 45 165 53 51 430 625 808 1059 875 731 596 440 366 273 387 508 761 1122 1536 1054 505 185 124 111 110 114 75 31 21 1 0 0 0 0 0 0 0 22 60 541 693
0 0 0 0 0 0 65 90 55 95 0 47 692 633 856 937 798 564 396 278 318 374 406 489 771 1247 1573 946 445 179 124 104 152 90 77 14 10 0 0 0 0 0 0 0 0 484 400 615 456
0 0 0 0 0 0 115 43 75 20 0 14 162 497 992 1013 652 387 225 195 402 452 332 306 535 1155 1427 971 398 211 134 90 146 84 88 23 0 0 0 0 0 0 0 0 45 656 623 478 294
0 0 0 0 0 0 26 24 12 19 9 0 102 507 1037 984 618 284 220 245 380 403 225 134 477 950 899 746 405 200 125 97 122 127 102 60 50 1 0 0 14 0 1 43 248 619 553 463 378
0 0 0 0 0 0 45 40 62 67 32 79 354 196 616 788 474 384 348 362 355 386 182 111 458 1005 680 454 308 291 158 139 108 102 124 18 0 0 0 3 24 44 0 184 561 658 380 268 252
0 0 0 0 0 0 75 45 95 92 19 77 437 912 955 720 648 556 451 348 330 418 234 137 498 908 550 604 249 79 47 16 6 7 22 0 0 2 0 0 4 1 0 117 547 478 116 16 6
0 0 0 0 0 0 36 76 109 48 47 174 278 903 909 860 846 778 687 493 408 432 376 155 526 658 463 345 111 29 7 0 0 0 0 0 0 0 0 0 0 0 0 0 0 0 0 0 0
0 0 0 0 0 0 32 20 110 33 61 95 205 775 831 999 966 917 804 616 419 494 357 184 576 585 382 198 130 51 20 0 0 0 0 0 0 0 0 0 0 0 0 0 0 0 0 0 0
0 0 0 0 0 0 0 15 41 27 320 390 427 665 809 955 970 1023 918 833 498 461 302 186 534 545 443 200 142 46 14 8 0 0 0 0 0 0 0 0 0 0 0 0 0 0 0 0 0
0 0 0 0 0 0 0 0 22 72 433 523 491 649 596 661 737 921 887 862 639 449 296 88 388 683 484 221 114 31 0 2 0 0 0 0 0 0 0 0 0 0 0 0 0 0 0 0 0
0 0 0 0 0 0 0 0 0 8 499 597 697 764 232 152 340 470 415 806 764 598 335 109 138 591 478 270 100 12 0 9 0 0 0 0 0 0 0 0 0 0 0 0 0 0 0 0 0
0 0 0 0 0 0 0 0 0 207 522 630 658 240 57 28 57 115 89 113 678 691 399 222 145 372 363 197 80 36 22 2 0 0 0 0 0 0 0 0 0 0 0 0 0 0 0 0 0
0 0 0 0 0 0 0 0 0 123 330 474 408 140 56 89 11 61 139 222 369 497 410 259 112 201 216 83 29 9 0 0 0 0 0 0 0 0 0 0 0 0 0 0 0 0 0 0 0
0 0 0 0 0 0 0 0 11 132 213 391 377 273 135 119 29 309 351 268 175 270 267 225 213 103 41 0 0 0 0 0 0 0 0 0 0 0 0 0 0 0 0 0 0 0 0 0 0
0 0 0 0 0 0 0 0 0 0 95 101 319 387 256 121 58 553 373 429 309 496 446 308 174 6 3 0 0 0 0 0 0 0 0 0 0 0 0 0 0 0 0 0 0 0 0 0 0
0 0 0 0 0 0 0 0 0 0 0 10 26 36 28 0 0 42 833 556 360 506 452 248 74 0 0 0 0 0 0 0 0 0 0 0 0 0 0 0 0 0 0 0 0 0 0 0 0
0 0 0 0 0 0 0 0 0 0 0 0 6 22 85 181 18 0 770 705 333 520 567 260 8 0 0 0 0 0 0 0 0 0 0 0 0 0 0 0 0 0 0 0 0 0 0 0 0
0 0 0 0 0 0 0 0 0 0 0 0 0 42 315 156 0 60 664 702 381 446 515 304 82 1 0 0 0 0 0 0 0 0 0 0 0 0 0 0 0 0 0 0 0 0 0 0 0
0 0 0 0 0 0 0 0 0 0 0 0 0 34 334 370 6 584 1122 708 427 502 546 471 225 33 0 0 0 0 0 0 0 0 0 0 0 0 0 0 0 0 0 0 0 0 0 0 0
0 0 0 0 0 0 0 0 0 0 0 0 0 45 599 1024 1153 1231 1142 665 520 548 458 460 397 184 3 0 0 0 0 0 0 0 0 0 0 0 0 0 0 0 0 0 0 0 0 0 0
0 0 0 0 0 0 0 0 0 0 0 0 0 112 651 1239 1365 1390 1072 822 673 747 554 361 561 528 73 9 0 0 0 0 0 0 0 0 0 0 0 0 0 0 0 0 0 0 0 0 0
0 0 0 0 0 0 0 0 0 0 0 0 0 4 470 1297 1142 1217 1130 815 826 820 660 640 520 472 174 81 46 0 0 0 0 0 0 0 0 0 0 0 0 0 0 0 0 0 0 0 0
0 0 0 0 0 0 0 0 0 0 0 0 0 0 266 1054 928 1068 946 755 753 810 735 764 616 456 352 226 108 57 6 0 0 0 0 0 0 0 0 0 0 0 0 0 0 0 0 0 0
0 0 0 0 0 0 0 0 0 0 0 0 0 37 61 457 476 530 783 818 694 728 679 540 436 538 475 406 293 224 77 0 0 0 0 0 0 0 0 0 0 0 0 0 0 0 0 0 0
0 0 0 0 0 0 0 0 0 0 0 0 0 0 43 277 208 36 301 696 662 603 571 448 483 545 422 442 370 314 219 114 34 2 0 0 0 0 0 0 0 0 0 0 0 0 0 0 0
0 0 0 0 0 0 0 0 0 0 0 0 0 0 0 54 213 31 9 206 583 637 452 565 541 544 501 542 679 675 623 276 111 42 6 0 23 6 10 0 0 0 0 0 0 0 0 0 0
CIN
-74 -0 -0 -0 -0 -0 -0 -74 -31 -121 -139 -197 -146 -179 -181 -173 -151 -0 -117 -142 -122 -82 -58 -44 -27 -59 -73 -23 -14 -5 -22 -74 -137 -198 -218 -230 -222 -228 -221 -0 -0 -0 -0 -0 -0 -0 -0 -0 -0
-0 -0 -0 -0 -0 -0 -0 -0 -120 -154 -172 -212 -187 -218 -208 -98 -137 -161 -80 -77 -104 -103 -94 -58 -30 -70 -50 -13 -6 -10 -53 -153 -197 -209 -231 -223 -289 -307 -0 -0 -0 -0 -0 -0 -0 -0 -0 -0 -6
-0 -0 -0 -0 -0 -0 -0 -193 -160 -220 -233 -185 -118 -152 -161 -134 -147 -146 -93 -96 -82 -94 -89 -72 -46 -61 -20 -6 -0 -22 -139 -202 -215 -251 -245 -273 -323 -0 -0 -0 -0 -0 -0 -0 -0 -0 -0 -68 -0
-0 -0 -0 -0 -0 -0 -0 -178 -267 -210 -268 -235 -145 -145 -101 -108 -124 -123 -108 -88 -103 -94 -95 -33 -47 -23 -1 -0 -13 -125 -183 -220 -226 -231 -252 -318 -358 -0 -0 -0 -0 -0 -0 -0 -0 -0 -0 -7 -0
-0 -0 -0 -0 -0 -0 -0 -255 -252 -217 -304 -276 -188 -145 -113 -110 -174 -166 -155 -142 -153 -141 -107 -82 -59 -14 -0 -4 -50 -158 -219 -237 -248 -252 -300 -368 -351 -73 -0 -0 -0 -0 -0 -0 -0 -97 -32 -0 -0
-0 -0 -0 -0 -0 -0 -317 -310 -274 -217 -0 -304 -183 -203 -146 -162 -206 -230 -261 -269 -206 -129 -124 -84 -37 -1 -0 -1 -54 -150 -216 -261 -244 -281 -300 -392 -288 -0 -0 -0 -0 -0 -0 -0 -0 -2 -3 -0 -1
-0 -0 -0 -0 -0 -0 -273 -357 -270 -324 -34 -282 -399 -263 -199 -162 -210 -276 -306 -290 -160 -114 -132 -165 -103 -9 -0 -1 -75 -170 -249 -268 -234 -288 -296 -362 -0 -0 -0 -0 -0 -0 -6 -0 -21 -1 -0 -6 -25
-0 -0 -0 -0 -0 -0 -302 -324 -418 -317 -377 -0 -449 -285 -202 -186 -230 -329 -331 -250 -137 -118 -174 -208 -107 -34 -35 -37 -80 -173 -215 -240 -247 -245 -266 -315 -343 -102 -0 -0 -135 -5 -3 -67 -27 -0 -2 -4 -23
-0 -0 -0 -0 -0 -0 -313 -218 -365 -473 -449 -458 -405 -418 -320 -322 -394 -349 -276 -213 -197 -150 -227 -268 -123 -48 -82 -130 -180 -186 -244 -264 -285 -283 -245 -255 -0 -0 -0 -182 -150 -111 -0 -30 -8 -0 -14 -10 -12
-0 -0 -0 -0 -0 -0 -271 -263 -322 -313 -423 -417 -420 -347 -331 -382 -365 -357 -308 -298 -275 -210 -268 -351 -159 -77 -137 -116 -253 -411 -429 -503 -512 -491 -419 -0 -0 -191 -0 -0 -79 -55 -0 -71 -5 -1 -31 -29 -37
-0 -0 -0 -0 -0 -0 -339 -316 -379 -356 -355 -397 -380 -358 -377 -420 -352 -328 -372 -371 -357 -292 -273 -443 -226 -149 -191 -214 -407 -559 -628 -0 -0 -0 -0 -0 -0 -0 -0 -0 -0 -0 -0 -0 -0 -0 -0 -0 -0
-0 -0 -0 -0 -0 -0 -303 -423 -296 -335 -249 -415 -434 -408 -408 -386 -381 -361 -332 -404 -432 -354 -385 -464 -238 -222 -297 -417 -508 -626 -646 -0 -0 -0 -0 -0 -0 -0 -0 -0 -0 -0 -0 -0 -0 -0 -0 -0 -0
-0 -0 -0 -0 -0 -0 -0 -180 -288 -356 -393 -432 -451 -458 -399 -366 -365 -329 -347 -352 -424 -438 -498 -559 -343 -310 -332 -479 -537 -687 -731 -623 -0 -0 -0 -0 -0 -0 -0 -0 -0 -0 -0 -0 -0 -0 -0 -0 -0
-0 -0 -0 -0 -0 -0 -0 -0 -323 -394 -453 -400 -375 -418 -405 -410 -396 -332 -328 -346 -432 -476 -538 -638 -432 -300 -356 -496 -567 -698 -0 -696 -0 -0 -0 -0 -0 -0 -0 -0 -0 -0 -0 -0 -0 -0 -0 -0 -0
-0 -0 -0 -0 -0 -0 -0 -0 -0 -140 -445 -371 -290 -316 -451 -563 -489 -448 -436 -368 -386 -469 -568 -669 -607 -358 -400 -481 -556 -687 -0 -656 -0 -0 -0 -0 -0 -0 -0 -0 -0 -0 -0 -0 -0 -0 -0 -0 -0
-0 -0 -0 -0 -0 -0 -0 -0 -0 -497 -412 -324 -321 -374 -523 -604 -602 -570 -572 -564 -386 -423 -574 -649 -556 -456 -433 -480 -583 -673 -709 -504 -0 -0 -0 -0 -0 -0 -0 -0 -0 -0 -0 -0 -0 -0 -0 -0 -0
-0 -0 -0 -0 -0 -0 -0 -0 -0 -543 -442 -344 -341 -380 -480 -469 -638 -630 -545 -535 -513 -517 -541 -632 -603 -536 -470 -581 -660 -492 -52 -0 -0 -0 -0 -0 -0 -0 -0 -0 -0 -0 -0 -0 -0 -0 -0 -0 -0
-0 -0 -0 -0 -0 -0 -0 -0 -514 -488 -429 -362 -377 -379 -435 -459 -488 -514 -488 -574 -696 -659 -621 -592 -567 -592 -649 -0 -0 -0 -0 -0 -0 -0 -0 -0 -0 -0 -0 -0 -0 -0 -0 -0 -0 -0 -0 -0 -0
-0 -0 -0 -0 -0 -0 -0 -0 -0 -2 -440 -393 -290 -291 -349 -384 -505 -440 -491 -521 -612 -582 -578 -576 -597 -343 -675 -0 -0 -0 -0 -0 -0 -0 -0 -0 -0 -0 -0 -0 -0 -0 -0 -0 -0 -0 -0 -0 -0
-0 -0 -0 -0 -0 -0 -0 -0 -0 -0 -0 -326 -414 -424 -431 -0 -0 -185 -357 -465 -532 -545 -534 -610 -670 -0 -0 -0 -0 -0 -0 -0 -0 -0 -0 -0 -0 -0 -0 -0 -0 -0 -0 -0 -0 -0 -0 -0 -0
-0 -0 -0 -0 -0 -0 -0 -0 -0 -0 -0 -0 -478 -563 -578 -504 -449 -0 -352 -389 -518 -476 -458 -565 -260 -0 -0 -0 -0 -0 -0 -0 -0 -0 -0 -0 -0 -0 -0 -0 -0 -0 -0 -0 -0 -0 -0 -0 -0
-0 -0 -0 -0 -0 -0 -0 -0 -0 -0 -0 -0 -0 -533 -432 -533 -0 -490 -410 -401 -503 -490 -462 -536 -572 -239 -0 -0 -0 -0 -0 -0 -0 -0 -0 -0 -0 -0 -0 -0 -0 -0 -0 -0 -0 -0 -0 -0 -0
-0 -0 -0 -0 -0 -0 -0 -0 -0 -0 -0 -0 -0 -535 -420 -477 -39 -428 -358 -431 -508 -484 -459 -445 -468 -534 -0 -0 -0 -0 -0 -0 -0 -0 -0 -0 -0 -0 -0 -0 -0 -0 -0 -0 -0 -0 -0 -0 -0
-0 -0 -0 -0 -0 -0 -0 -0 -0 -0 -0 -0 -0 -273 -376 -348 -368 -361 -389 -489 -514 -479 -479 -435 -393 -456 -124 -0 -0 -0 -0 -0 -0 -0 -0 -0 -0 -0 -0 -0 -0 -0 -0 -0 -0 -0 -0 -0 -0
-0 -0 -0 -0 -0 -0 -0 -0 -0 -0 -0 -0 -0 -414 -391 -346 -327 -318 -399 -427 -462 -446 -485 -513 -414 -421 -581 -612 -0 -0 -0 -0 -0 -0 -0 -0 -0 -0 -0 -0 -0 -0 -0 -0 -0 -0 -0 -0 -0
-0 -0 -0 -0 -0 -0 -0 -0 -0 -0 -0 -0 -0 -62 -430 -331 -377 -375 -399 -445 -432 -428 -449 -439 -479 -466 -523 -515 -487 -0 -0 -0 -0 -0 -0 -0 -0 -0 -0 -0 -0 -0 -0 -0 -0 -0 -0 -0 -0
-0 -0 -0 -0 -0 -0 -0 -0 -0 -0 -0 -0 -0 -43 -418 -383 -422 -387 -417 -467 -466 -440 -439 -407 -409 -409 -397 -396 -408 -382 -433 -0 -0 -0 -0 -0 -0 -0 -0 -0 -0 -0 -0 -0 -0 -0 -0 -0 -0
-0 -0 -0 -0 -0 -0 -0 -0 -0 -0 -0 -0 -0 -268 -446 -475 -529 -536 -476 -464 -471 -444 -445 -439 -425 -358 -341 -320 -317 -309 -317 -0 -0 -0 -0 -0 -0 -0 -0 -0 -0 -0 -0 -0 -0 -0 -0 -0 -0
-0 -0 -0 -0 -0 -0 -0 -0 -0 -0 -0 -0 -0 -0 -406 -433 -542 -376 -596 -505 -462 -434 -450 -450 -387 -340 -356 -314 -293 -272 -298 -352 -419 -318 -18 -0 -0 -0 -0 -0 -0 -0 -0 -0 -0 -0 -0 -0 -0
-0 -0 -0 -0 -0 -0 -0 -0 -0 -0 -0 -0 -0 -0 -0 -490 -508 -550 -662 -604 -449 -392 -423 -393 -360 -316 -297 -268 -240 -222 -204 -270 -276 -275 -270 -0 -232 -248 -212 -0 -0 -0 -0 -0 -0 -0 -0 -0 -0
Wind_Speed
4 5 1 3 5 5 3 0 3 2 3 4 2 3 5 4 1 4 1 6 14 11 9 11 15 15 14 13 12 10 10 10 9 10 10 10 11 11 11 11 10 10 10 10 10 10 8 7 7
4 3 3 2 6 4 6 2 4 2 3 4 6 4 4 2 3 8 8 10 11 11 7 6 15 15 14 12 12 10 9 10 10 9 9 9 10 10 10 11 11 11 10 9 9 9 8 9 7
4 2 4 5 3 3 4 3 4 3 3 2 3 5 2 2 7 9 7 13 12 9 7 7 14 14 14 14 12 11 10 10 9 9 9 9 9 9 10 12 11 11 11 11 11 9 10 9 9
3 4 5 5 3 5 4 2 1 1 2 4 2 6 5 2 5 7 13 12 12 8 6 11 14 13 12 14 12 11 11 10 9 8 8 8 8 9 11 12 12 13 14 14 11 9 9 8 14
4 3 4 3 4 5 3 4 9 4 3 3 3 4 4 3 11 15 14 12 13 8 5 8 14 13 12 12 11 11 11 10 9 8 7 7 8 10 11 12 12 12 12 12 11 9 7 10 14
4 3 6 2 4 4 3 9 2 2 5 3 4 5 2 7 11 11 11 11 11 9 7 6 11 11 12 10 11 10 9 9 8 7 7 7 8 10 11 12 12 13 13 12 10 10 12 14 14
7 5 3 2 3 3 2 3 4 5 3 3 2 4 2 4 7 10 8 7 7 6 5 5 7 9 11 10 10 10 8 7 6 6 7 8 9 10 11 11 12 13 13 10 9 15 14 14 14
6 6 1 3 2 3 2 2 2 4 2 2 2 5 6 7 11 10 9 7 6 5 5 4 5 5 6 6 9 9 7 6 5 4 5 8 10 10 10 8 9 13 15 12 11 14 15 14 14
3 6 1 3 1 1 4 4 2 1 2 1 1 2 7 19 16 12 10 7 8 6 4 4 4 5 5 5 6 9 9 7 5 4 4 6 4 5 6 7 10 13 15 12 13 14 14 14 15
5 4 8 6 3 4 5 5 5 1 1 1 3 8 17 17 14 15 12 10 10 9 6 6 5 7 5 5 4 5 3 2 2 2 2 2 2 2 5 7 9 11 13 13 14 15 14 10 5
3 5 5 4 6 6 7 4 2 5 3 7 6 12 15 17 11 11 14 12 12 9 6 7 7 7 5 3 3 2 2 2 1 2 2 0 1 2 2 2 3 3 8 4 5 5 5 6 5
2 6 4 1 4 5 7 5 4 5 6 3 10 14 13 13 13 11 8 10 12 9 9 8 8 9 7 4 4 4 3 2 1 1 2 1 0 0 2 1 2 2 2 5 4 3 4 6 6
2 3 1 1 6 7 7 4 4 2 8 4 11 11 10 8 7 5 6 6 7 10 10 10 9 10 7 5 3 3 3 3 3 3 2 2 2 1 1 1 2 1 3 3 4 3 4 5 6
3 3 6 4 4 6 7 3 4 5 4 3 9 13 8 6 7 5 6 8 11 8 10 8 9 8 5 4 6 4 4 3 3 2 3 4 3 2 2 3 3 3 3 3 4 3 4 4 4
3 5 1 4 3 4 5 3 1 4 4 6 7 1 8 6 6 8 9 10 11 10 10 10 9 6 6 7 6 4 4 4 3 3 3 4 4 4 2 3 3 3 3 6 5 2 3 3 3
4 5 5 4 4 3 6 4 8 1 2 6 4 3 5 3 5 4 3 8 10 9 12 11 9 8 7 5 4 3 4 3 3 3 3 5 5 4 4 4 3 3 3 3 5 3 2 3 3
7 3 3 7 4 1 5 1 1 3 4 5 5 3 3 5 4 2 4 4 8 9 9 9 8 8 5 5 4 3 4 4 4 3 3 3 4 4 5 4 3 4 4 3 4 3 3 3 3
2 2 0 1 5 8 5 2 2 1 2 6 6 8 2 2 3 3 3 4 6 7 7 7 6 7 7 5 4 3 2 2 2 2 2 3 3 5 4 3 3 2 2 2 3 1 1 2 3
4 3 3 3 2 7 4 4 3 3 3 6 8 10 7 6 2 3 4 1 5 5 8 8 8 7 9 4 4 1 2 2 2 0 1 2 4 5 4 3 3 3 3 3 2 2 2 1 2
5 4 5 3 2 8 2 4 4 3 4 4 7 9 9 7 2 3 4 2 5 6 7 8 7 8 6 4 1 3 3 1 1 1 0 2 4 4 4 4 3 3 3 3 2 2 2 1 2
3 6 5 8 7 9 8 7 4 4 5 6 7 7 7 7 6 4 3 4 5 7 8 9 9 9 7 7 4 3 3 2 0 1 2 2 3 4 4 3 2 3 3 2 2 3 4 3 2
1 5 6 9 5 6 2 4 6 6 8 5 9 9 9 6 4 3 4 5 7 6 6 8 8 8 7 8 4 4 4 3 2 2 2 3 3 3 4 4 3 3 2 2 2 2 2 3 3
3 5 5 4 5 5 1 4 5 3 7 8 10 10 9 8 7 6 6 4 4 5 5 6 8 8 7 8 6 5 4 2 1 1 2 2 3 3 4 4 3 2 2 2 3 3 4 2 2
8 8 10 6 4 3 2 5 4 7 10 8 7 8 8 9 5 3 2 4 5 5 6 5 6 6 9 10 8 7 6 4 3 2 3 3 2 3 4 3 3 2 2 3 3 3 4 3 2
6 7 4 4 5 5 0 2 8 5 6 14 15 10 8 6 5 1 1 2 4 7 7 6 9 9 6 6 5 5 5 5 5 5 4 4 3 3 5 4 4 3 3 4 3 4 3 4 3
3 7 8 6 4 3 4 3 4 5 4 1 3 4 5 7 5 6 5 7 7 7 7 8 8 5 4 4 4 3 4 3 3 4 3 3 4 4 4 5 5 6 6 5 4 3 3 4 4
4 4 5 9 3 2 2 6 5 3 4 4 6 7 10 8 8 8 7 6 7 7 7 8 4 3 4 4 3 4 4 5 5 5 4 3 4 4 5 5 6 7 7 6 5 4 5 4 4
4 6 5 4 5 3 4 3 5 2 7 7 8 12 9 8 8 8 8 7 5 6 5 5 5 5 5 5 5 5 5 4 5 4 5 6 5 6 5 6 6 6 7 6 6 4 4 5 4
3 3 8 6 4 6 1 6 7 6 5 8 8 8 10 12 13 11 10 7 5 4 5 5 5 6 5 5 6 7 8 11 6 7 6 6 6 8 7 8 7 7 7 7 6 6 5 7 5
3 5 5 6 3 3 4 7 2 3 7 6 10 6 9 10 10 9 6 6 6 5 3 6 6 6 6 6 7 8 7 4 5 6 6 7 9 6 6 6 6 7 8 7 9 9 8 8 7
Wind_Direction
117 113 92 46 52 55 324 35 279 314 42 342 70 145 148 60 139 203 172 139 133 134 139 142 141 137 135 133 125 119 111 103 99 96 90 86 81 78 76 78 75 69 65 60 58 64 65 68 66
123 120 44 79 75 49 283 206 240 353 57 99 79 91 52 46 82 124 122 137 130 125 114 134 142 138 139 133 127 121 109 102 98 91 85 83 77 72 70 71 68 64 62 61 60 61 59 61 62
123 81 85 90 99 172 235 184 213 278 323 15 78 58 95 80 103 141 122 129 123 115 124 155 144 144 143 135 126 116 110 105 102 94 89 75 69 71 73 68 61 56 57 58 64 69 65 72 79
126 22 36 88 207 257 230 212 76 198 166 61 118 74 74 172 137 132 131 127 119 122 139 149 149 147 145 129 127 121 116 107 101 95 86 78 75 78 75 72 70 68 68 67 60 55 66 80 94
39 59 66 62 265 271 304 144 204 163 77 21 341 98 85 36 113 131 134 133 132 138 154 146 151 150 144 132 129 127 122 118 115 116 100 89 82 78 74 76 74 67 61 58 47 44 69 103 95
47 95 55 342 268 272 306 207 33 106 68 21 73 88 81 126 138 140 136 135 139 149 137 142 149 150 135 135 124 121 122 123 128 118 103 89 85 81 80 79 69 58 53 50 51 65 104 102 93
111 80 177 230 265 306 204 6 334 49 75 39 342 111 146 152 125 128 120 114 122 118 116 124 138 154 138 131 129 132 136 136 130 114 101 88 76 73 76 71 65 52 37 46 98 93 107 112 106
106 90 91 248 296 39 139 56 53 57 133 229 154 175 180 151 132 111 101 90 91 100 106 121 127 134 123 131 140 145 151 131 128 114 98 76 64 62 66 59 63 49 41 55 112 109 99 85 81
119 65 244 240 216 113 187 137 86 159 118 153 216 199 139 138 131 123 119 126 140 141 134 139 134 129 136 146 163 161 154 150 150 130 95 55 42 34 44 37 47 58 51 60 111 115 95 93 91
90 105 212 210 215 191 180 156 123 71 268 263 87 77 137 137 144 145 157 164 167 168 170 160 167 154 158 168 151 141 145 124 112 100 85 81 58 14 44 25 31 52 70 63 109 105 91 75 63
159 186 203 249 236 155 159 87 88 131 260 228 160 157 162 155 160 167 167 167 177 166 177 173 174 172 167 147 130 118 129 126 126 155 164 159 35 353 30 34 2 34 74 70 71 75 80 93 99
26 248 216 197 142 101 120 127 148 199 249 264 156 174 176 161 169 169 185 163 164 169 175 173 185 183 181 164 166 161 158 137 172 220 215 201 324 357 54 56 354 31 85 99 85 90 99 97 93
156 274 138 227 88 131 125 129 147 238 279 82 140 167 180 180 158 164 176 159 171 173 175 184 179 192 192 161 150 150 166 165 177 213 236 186 213 97 113 113 80 79 100 104 103 113 116 119 127
232 277 282 73 204 141 106 118 144 245 268 133 165 197 109 125 141 148 173 182 182 172 182 173 188 194 182 169 162 175 166 176 176 187 191 184 157 149 173 128 104 76 92 110 106 143 143 134 126
316 326 127 27 146 131 130 74 288 246 223 190 216 58 95 104 129 169 184 194 194 182 170 177 185 187 183 177 176 167 169 168 173 189 133 169 156 179 156 108 113 106 100 107 97 104 118 116 111
21 54 45 323 351 107 155 257 344 61 193 204 226 281 61 75 113 108 157 195 197 191 176 168 179 182 189 175 165 158 171 160 178 170 154 181 159 151 119 124 136 135 124 144 126 149 135 145 162
8 104 50 336 55 50 57 228 81 5 358 246 262 270 45 344 50 248 174 182 193 183 174 169 169 168 171 135 130 162 167 163 160 154 181 162 141 125 128 146 151 165 170 171 134 147 162 172 175
78 40 90 236 313 42 66 70 74 243 263 272 301 291 232 252 263 278 320 110 165 149 145 150 139 142 119 104 97 68 113 99 120 148 177 149 145 132 141 136 134 112 89 92 92 139 98 130 174
138 192 199 265 126 81 19 88 18 37 253 276 281 278 279 280 225 307 302 151 136 130 135 147 140 133 124 120 133 112 108 126 77 105 259 199 171 156 152 135 131 133 121 111 131 136 141 132 130
166 175 175 56 53 85 67 31 355 331 247 219 258 278 281 285 214 277 291 161 202 148 141 135 134 137 116 89 48 105 132 108 128 112 203 214 181 160 155 157 162 127 122 108 132 149 127 126 178
167 160 176 146 101 41 101 354 324 303 319 325 295 278 273 262 257 212 195 201 187 168 159 143 146 132 128 132 113 82 83 78 134 227 224 222 187 172 161 188 157 149 132 163 172 170 169 186 180
245 170 138 130 120 164 201 240 270 247 282 272 268 282 275 260 208 218 204 178 190 180 146 133 145 144 144 149 156 169 170 175 206 191 189 189 220 219 191 198 174 186 170 194 214 182 185 155 190
183 95 112 107 91 99 343 81 272 107 256 236 243 260 261 245 221 220 218 192 186 162 155 150 150 151 157 176 175 185 173 171 148 176 192 198 217 226 229 204 193 212 204 233 211 196 201 192 166
161 67 38 46 80 56 251 143 254 186 204 203 231 239 246 251 242 251 238 128 135 145 154 146 152 171 182 182 183 185 185 182 177 192 213 213 215 231 235 228 200 223 230 228 225 221 220 206 198
74 67 14 13 18 208 243 58 243 247 224 182 204 212 226 247 263 245 316 222 176 189 177 160 185 203 181 177 181 188 202 202 209 204 203 192 213 224 230 210 212 217 227 229 221 216 220 210 200
97 142 150 176 194 243 15 240 263 253 205 52 153 237 209 215 227 239 207 211 216 198 181 188 202 203 179 169 209 202 208 210 223 228 220 225 224 227 215 212 210 216 220 222 212 204 223 216 213
181 71 151 102 19 83 253 292 341 52 134 184 185 190 215 211 208 211 234 230 222 195 189 206 181 117 157 192 194 213 211 209 233 241 232 230 235 242 231 217 214 221 223 219 207 211 219 205 205
111 148 75 18 133 195 308 275 243 231 222 196 208 215 216 217 221 219 217 221 232 216 184 163 142 175 194 197 200 209 207 209 232 260 243 233 229 227 222 217 214 218 220 214 205 216 217 214 210
58 62 57 110 111 144 126 279 219 255 275 210 245 235 215 214 215 213 217 198 218 242 168 164 171 204 204 205 209 213 217 223 197 195 206 248 248 219 216 216 210 214 216 205 195 208 217 215 217
110 127 119 114 212 73 133 260 313 287 298 270 278 232 207 215 213 215 213 188 178 218 187 184 194 206 210 209 216 230 237 213 227 239 213 195 235 243 234 224 220 214 216 210 205 212 212 211 220